JST529 YSSY-YMML

Flight info

Callsign JST529
Flight time 1h 8m
Altitude 32000
Route MARUB7/34R WOL H65 LEECE Q29 ML
Aircraft A320/M-SDE3FGHIRWY/LB1

Departure

Time 2026-04-30 11:05
Airport Sydney Kingsford Smith International Airport (YSSY)

Arrival

Time 2026-04-30 12:14
Airport Melbourne Airport (YMML)
Time Latitude Longitude Altitude Speed Heading
2026-04-30 10:30 -33.93598 151.17748 30 ft 0 kts 302°
2026-04-30 10:45 -33.93611 151.17774 30 ft 4 kts 295°
2026-04-30 10:45 -33.93619 151.17803 30 ft 4 kts 263°
2026-04-30 10:46 -33.93613 151.17820 30 ft 1 kts 190°
2026-04-30 10:46 -33.93612 151.17820 30 ft 0 kts 190°
2026-04-30 10:50 -33.93646 151.17812 30 ft 10 kts 191°
2026-04-30 10:50 -33.93719 151.17789 30 ft 12 kts 195°
2026-04-30 10:51 -33.93810 151.17763 30 ft 15 kts 194°
2026-04-30 10:51 -33.93874 151.17771 30 ft 3 kts 167°
2026-04-30 10:51 -33.93908 151.17780 29 ft 8 kts 167°
2026-04-30 10:51 -33.93997 151.17804 29 ft 16 kts 167°
2026-04-30 10:52 -33.94114 151.17835 29 ft 18 kts 168°
2026-04-30 10:52 -33.94245 151.17868 30 ft 20 kts 168°
2026-04-30 10:52 -33.94393 151.17907 30 ft 23 kts 167°
2026-04-30 10:52 -33.94525 151.17890 30 ft 18 kts 185°
2026-04-30 10:53 -33.94656 151.17916 30 ft 20 kts 167°
2026-04-30 10:53 -33.94800 151.17955 30 ft 23 kts 168°
2026-04-30 10:53 -33.94952 151.17993 30 ft 16 kts 167°
2026-04-30 10:53 -33.95069 151.18024 30 ft 18 kts 166°
2026-04-30 10:54 -33.95091 151.18152 30 ft 18 kts 77°
2026-04-30 10:54 -33.95066 151.18292 30 ft 15 kts 78°
2026-04-30 10:54 -33.95054 151.18361 30 ft 0 kts 78°
2026-04-30 10:54 -33.95053 151.18367 30 ft 2 kts 78°
2026-04-30 10:55 -33.95045 151.18408 30 ft 8 kts 77°
2026-04-30 10:55 -33.95045 151.18488 30 ft 12 kts 122°
2026-04-30 10:55 -33.95115 151.18543 30 ft 13 kts 139°
2026-04-30 10:55 -33.95186 151.18621 30 ft 15 kts 139°
2026-04-30 10:56 -33.95281 151.18704 30 ft 18 kts 154°
2026-04-30 10:56 -33.95411 151.18743 30 ft 19 kts 166°
2026-04-30 10:56 -33.95551 151.18780 30 ft 22 kts 167°
2026-04-30 10:56 -33.95709 151.18824 30 ft 25 kts 168°
2026-04-30 10:57 -33.95885 151.18869 30 ft 27 kts 168°
2026-04-30 10:57 -33.96076 151.18918 30 ft 30 kts 167°
2026-04-30 10:57 -33.96284 151.18974 30 ft 31 kts 167°
2026-04-30 10:57 -33.96491 151.19024 30 ft 30 kts 168°
2026-04-30 10:58 -33.96679 151.19072 30 ft 25 kts 169°
2026-04-30 10:58 -33.96845 151.19071 30 ft 24 kts 167°
2026-04-30 10:58 -33.97010 151.19113 30 ft 22 kts 168°
2026-04-30 10:58 -33.97113 151.19154 30 ft 14 kts 136°
2026-04-30 10:59 -33.97125 151.19180 30 ft 2 kts 110°
2026-04-30 10:59 -33.97126 151.19191 30 ft 0 kts 97°
2026-04-30 11:01 -33.97124 151.19218 30 ft 7 kts 79°
2026-04-30 11:02 -33.97104 151.19311 27 ft 11 kts 73°
2026-04-30 11:02 -33.97115 151.19264 29 ft 0 kts 73°
2026-04-30 11:03 -33.97102 151.19322 29 ft 13 kts 81°
2026-04-30 11:03 -33.97063 151.19373 25 ft 0 kts 349°
2026-04-30 11:04 -33.97013 151.19361 25 ft 29 kts 348°
2026-04-30 11:05 -33.96564 151.19244 26 ft 99 kts 348°
2026-04-30 11:05 -33.95707 151.19020 26 ft 150 kts 348°
2026-04-30 11:05 -33.94619 151.18751 490 ft 159 kts 352°
2026-04-30 11:05 -33.93520 151.18778 1142 ft 159 kts 26°
2026-04-30 11:06 -33.92723 151.19658 1811 ft 160 kts 62°
2026-04-30 11:06 -33.92517 151.21014 2311 ft 175 kts 97°
2026-04-30 11:06 -33.93015 151.22390 2904 ft 182 kts 114°
2026-04-30 11:06 -33.93607 151.23741 3537 ft 183 kts 109°
2026-04-30 11:07 -33.93837 151.25227 4148 ft 181 kts 86°
2026-04-30 11:07 -33.93794 151.26755 4778 ft 184 kts 86°
2026-04-30 11:07 -33.93746 151.28364 5160 ft 203 kts 87°
2026-04-30 11:07 -33.93781 151.30152 5422 ft 228 kts 101°
2026-04-30 11:08 -33.94578 151.31884 5790 ft 257 kts 136°
2026-04-30 11:08 -33.96237 151.32807 6456 ft 275 kts 173°
2026-04-30 11:08 -33.98141 151.32431 7308 ft 284 kts 202°
2026-04-30 11:08 -33.99854 151.31231 8155 ft 290 kts 215°
2026-04-30 11:09 -34.01448 151.29700 9045 ft 294 kts 220°
2026-04-30 11:09 -34.02981 151.28087 9877 ft 299 kts 221°
2026-04-30 11:09 -34.04563 151.26427 10584 ft 309 kts 220°
2026-04-30 11:09 -34.06275 151.24703 10880 ft 332 kts 219°
2026-04-30 11:10 -34.08111 151.22932 11457 ft 341 kts 218°
2026-04-30 11:10 -34.10005 151.21162 12172 ft 346 kts 218°
2026-04-30 11:10 -34.11930 151.19400 12943 ft 349 kts 217°
2026-04-30 11:10 -34.13887 151.17629 13713 ft 352 kts 217°
2026-04-30 11:11 -34.15859 151.15846 14469 ft 354 kts 217°
2026-04-30 11:11 -34.17819 151.14069 15115 ft 357 kts 217°
2026-04-30 11:11 -34.19813 151.12255 15759 ft 360 kts 217°
2026-04-30 11:11 -34.21822 151.10418 16395 ft 363 kts 217°
2026-04-30 11:12 -34.23846 151.08561 17025 ft 367 kts 217°
2026-04-30 11:12 -34.25888 151.06683 17676 ft 370 kts 217°
2026-04-30 11:12 -34.27948 151.04787 18306 ft 373 kts 217°
2026-04-30 11:12 -34.30021 151.02876 18919 ft 377 kts 217°
2026-04-30 11:13 -34.32116 151.00947 19476 ft 380 kts 217°
2026-04-30 11:13 -34.34237 150.99002 20050 ft 383 kts 217°
2026-04-30 11:13 -34.36372 150.97040 20623 ft 386 kts 217°
2026-04-30 11:13 -34.38498 150.95086 21167 ft 389 kts 217°
2026-04-30 11:14 -34.40661 150.93097 21713 ft 392 kts 217°
2026-04-30 11:14 -34.42832 150.91093 22230 ft 394 kts 217°
2026-04-30 11:14 -34.45033 150.89059 22745 ft 398 kts 217°
2026-04-30 11:14 -34.47240 150.87021 23257 ft 401 kts 216°
2026-04-30 11:15 -34.49470 150.84960 23762 ft 404 kts 217°
2026-04-30 11:15 -34.51715 150.82879 24224 ft 407 kts 217°
2026-04-30 11:15 -34.53942 150.80813 24661 ft 409 kts 217°
2026-04-30 11:15 -34.56049 150.78484 25087 ft 411 kts 227°
2026-04-30 11:16 -34.57832 150.75750 25537 ft 414 kts 233°
2026-04-30 11:16 -34.59537 150.72914 25980 ft 416 kts 233°
2026-04-30 11:16 -34.61255 150.70066 26413 ft 418 kts 233°
2026-04-30 11:16 -34.62950 150.67256 26841 ft 420 kts 232°
2026-04-30 11:17 -34.64685 150.64379 27270 ft 422 kts 233°
2026-04-30 11:17 -34.66418 150.61499 27693 ft 424 kts 233°
2026-04-30 11:17 -34.68159 150.58599 28090 ft 426 kts 232°
2026-04-30 11:17 -34.69913 150.55677 28505 ft 428 kts 232°
2026-04-30 11:18 -34.71674 150.52745 28903 ft 430 kts 232°
2026-04-30 11:18 -34.75220 150.46836 29723 ft 434 kts 233°
2026-04-30 11:18 -34.77002 150.43858 30107 ft 437 kts 233°
2026-04-30 11:19 -34.78768 150.40899 30509 ft 439 kts 233°
2026-04-30 11:19 -34.80557 150.37900 30854 ft 441 kts 233°
2026-04-30 11:19 -34.82349 150.34893 31196 ft 443 kts 233°
2026-04-30 11:19 -34.84166 150.31850 31537 ft 445 kts 233°
2026-04-30 11:20 -34.85971 150.28829 31875 ft 447 kts 233°
2026-04-30 11:20 -34.87801 150.25765 32275 ft 448 kts 233°
2026-04-30 11:20 -34.89310 150.23234 32423 ft 447 kts 233°
2026-04-30 11:20 -34.91128 150.20181 32464 ft 446 kts 233°
2026-04-30 11:21 -34.94757 150.14074 32468 ft 445 kts 233°
2026-04-30 11:21 -34.98314 150.08069 32468 ft 425 kts 234°
2026-04-30 11:22 -35.01737 150.02279 32468 ft 419 kts 234°
2026-04-30 11:22 -35.05143 149.96509 32469 ft 418 kts 234°
2026-04-30 11:23 -35.08524 149.90786 32469 ft 418 kts 234°
2026-04-30 11:24 -35.13635 149.82115 32474 ft 418 kts 234°
2026-04-30 11:24 -35.17004 149.76382 32475 ft 418 kts 234°
2026-04-30 11:25 -35.22063 149.67754 32476 ft 419 kts 234°
2026-04-30 11:26 -35.28839 149.56159 32483 ft 418 kts 235°
2026-04-30 11:26 -35.32206 149.50389 32482 ft 418 kts 235°
2026-04-30 11:27 -35.35598 149.44563 32479 ft 418 kts 235°
2026-04-30 11:27 -35.38959 149.38775 32482 ft 419 kts 235°
2026-04-30 11:28 -35.44029 149.30036 32486 ft 419 kts 235°
2026-04-30 11:29 -35.46849 149.25170 32486 ft 419 kts 235°
2026-04-30 11:29 -35.51909 149.16408 32489 ft 419 kts 235°
2026-04-30 11:30 -35.56959 149.07644 32502 ft 419 kts 235°
2026-04-30 11:31 -35.60314 149.01802 32512 ft 419 kts 236°
2026-04-30 11:31 -35.63657 148.95983 32509 ft 419 kts 236°
2026-04-30 11:32 -35.67036 148.90092 32512 ft 419 kts 236°
2026-04-30 11:32 -35.70372 148.84266 32512 ft 419 kts 236°
2026-04-30 11:33 -35.75412 148.75451 32519 ft 419 kts 236°
2026-04-30 11:33 -35.78763 148.69570 32512 ft 419 kts 236°
2026-04-30 11:34 -35.82111 148.63687 32511 ft 419 kts 236°
2026-04-30 11:34 -35.85210 148.58236 32512 ft 419 kts 237°
2026-04-30 11:35 -35.88549 148.52342 32516 ft 419 kts 237°
2026-04-30 11:35 -35.91857 148.46476 32509 ft 419 kts 237°
2026-04-30 11:36 -35.95184 148.40555 32501 ft 419 kts 237°
2026-04-30 11:36 -35.98509 148.34631 32490 ft 420 kts 237°
2026-04-30 11:37 -36.01844 148.28701 32492 ft 420 kts 237°
2026-04-30 11:37 -36.05159 148.22790 32476 ft 420 kts 238°
2026-04-30 11:38 -36.08446 148.16906 32482 ft 420 kts 238°
2026-04-30 11:38 -36.11706 148.11062 32475 ft 420 kts 238°
2026-04-30 11:39 -36.15034 148.05102 32473 ft 420 kts 238°
2026-04-30 11:39 -36.18330 147.99212 32465 ft 420 kts 238°
2026-04-30 11:40 -36.21662 147.93248 32471 ft 420 kts 238°
2026-04-30 11:40 -36.24985 147.87280 32462 ft 421 kts 238°
2026-04-30 11:41 -36.28302 147.81298 32465 ft 421 kts 238°
2026-04-30 11:41 -36.31599 147.75347 32465 ft 421 kts 238°
2026-04-30 11:42 -36.34922 147.69355 32463 ft 421 kts 238°
2026-04-30 11:42 -36.38239 147.63345 32467 ft 420 kts 239°
2026-04-30 11:43 -36.41512 147.57395 32467 ft 420 kts 239°
2026-04-30 11:43 -36.44818 147.51385 32456 ft 420 kts 239°
2026-04-30 11:44 -36.48112 147.45387 32457 ft 419 kts 239°
2026-04-30 11:44 -36.51395 147.39401 32462 ft 419 kts 239°
2026-04-30 11:45 -36.54653 147.33435 32456 ft 419 kts 239°
2026-04-30 11:45 -36.57927 147.27426 32457 ft 419 kts 239°
2026-04-30 11:46 -36.61198 147.21420 32455 ft 419 kts 239°
2026-04-30 11:46 -36.64467 147.15398 32453 ft 419 kts 239°
2026-04-30 11:47 -36.67733 147.09373 32460 ft 419 kts 240°
2026-04-30 11:47 -36.70998 147.03355 32458 ft 419 kts 240°
2026-04-30 11:48 -36.74250 146.97355 32457 ft 420 kts 240°
2026-04-30 11:48 -36.77501 146.91331 32454 ft 420 kts 240°
2026-04-30 11:49 -36.80765 146.85257 32468 ft 420 kts 240°
2026-04-30 11:49 -36.83999 146.79250 32461 ft 419 kts 240°
2026-04-30 11:50 -36.87251 146.73202 32456 ft 419 kts 240°
2026-04-30 11:50 -36.90476 146.67198 32167 ft 410 kts 240°
2026-04-30 11:51 -36.92043 146.64283 31919 ft 406 kts 240°
2026-04-30 11:51 -36.93602 146.61374 31667 ft 403 kts 240°
2026-04-30 11:51 -36.95115 146.58540 31427 ft 401 kts 240°
2026-04-30 11:51 -36.96660 146.55638 31185 ft 400 kts 240°
2026-04-30 11:52 -36.98202 146.52738 30968 ft 396 kts 240°
2026-04-30 11:52 -36.99715 146.49894 30588 ft 393 kts 240°
2026-04-30 11:52 -37.01191 146.47125 30151 ft 391 kts 240°
2026-04-30 11:52 -37.02721 146.44259 29754 ft 388 kts 240°
2026-04-30 11:53 -37.04213 146.41460 29349 ft 385 kts 240°
2026-04-30 11:53 -37.05690 146.38680 28980 ft 382 kts 240°
2026-04-30 11:53 -37.07155 146.35919 28588 ft 379 kts 240°
2026-04-30 11:53 -37.08605 146.33176 28204 ft 376 kts 241°
2026-04-30 11:54 -37.10048 146.30445 27797 ft 374 kts 240°
2026-04-30 11:54 -37.11478 146.27742 27415 ft 371 kts 240°
2026-04-30 11:54 -37.12882 146.25092 27017 ft 369 kts 240°
2026-04-30 11:54 -37.14299 146.22420 26626 ft 367 kts 240°
2026-04-30 11:55 -37.15709 146.19758 26201 ft 365 kts 240°
2026-04-30 11:55 -37.17107 146.17111 25780 ft 363 kts 240°
2026-04-30 11:55 -37.18497 146.14474 25373 ft 362 kts 240°
2026-04-30 11:55 -37.19874 146.11853 24940 ft 361 kts 240°
2026-04-30 11:56 -37.21213 146.09304 24516 ft 360 kts 240°
2026-04-30 11:56 -37.22580 146.06702 24086 ft 359 kts 240°
2026-04-30 11:56 -37.23957 146.04083 23612 ft 358 kts 240°
2026-04-30 11:56 -37.25325 146.01483 23170 ft 356 kts 240°
2026-04-30 11:57 -37.26682 145.98906 22734 ft 353 kts 240°
2026-04-30 11:57 -37.28030 145.96337 22300 ft 351 kts 240°
2026-04-30 11:57 -37.29370 145.93780 21881 ft 349 kts 240°
2026-04-30 11:57 -37.30699 145.91243 21462 ft 346 kts 240°
2026-04-30 11:58 -37.31975 145.88811 21046 ft 344 kts 240°
2026-04-30 11:58 -37.33282 145.86319 20622 ft 343 kts 240°
2026-04-30 11:58 -37.34599 145.83812 20201 ft 342 kts 240°
2026-04-30 11:58 -37.35907 145.81321 19782 ft 341 kts 240°
2026-04-30 11:59 -37.37212 145.78833 19363 ft 340 kts 240°
2026-04-30 11:59 -37.38498 145.76381 18941 ft 340 kts 240°
2026-04-30 11:59 -37.39798 145.73899 18490 ft 340 kts 240°
2026-04-30 11:59 -37.41091 145.71423 18057 ft 338 kts 240°
2026-04-30 12:00 -37.42378 145.68954 17638 ft 335 kts 240°
2026-04-30 12:00 -37.43653 145.66509 17219 ft 333 kts 240°
2026-04-30 12:00 -37.44922 145.64077 16813 ft 330 kts 240°
2026-04-30 12:00 -37.46218 145.61693 16406 ft 329 kts 238°
2026-04-30 12:01 -37.47534 145.59412 16008 ft 322 kts 237°
2026-04-30 12:01 -37.48850 145.57192 15617 ft 311 kts 237°
2026-04-30 12:01 -37.50129 145.55046 15245 ft 301 kts 237°
2026-04-30 12:01 -37.51362 145.52966 14893 ft 294 kts 237°
2026-04-30 12:02 -37.52576 145.50893 14530 ft 295 kts 237°
2026-04-30 12:02 -37.53788 145.48807 14170 ft 296 kts 237°
2026-04-30 12:02 -37.55001 145.46712 13782 ft 296 kts 237°
2026-04-30 12:02 -37.56221 145.44605 13408 ft 297 kts 237°
2026-04-30 12:03 -37.57438 145.42505 13043 ft 296 kts 237°
2026-04-30 12:03 -37.59851 145.38336 12326 ft 295 kts 237°
2026-04-30 12:03 -37.61062 145.36242 11953 ft 294 kts 237°
2026-04-30 12:04 -37.62270 145.34158 11586 ft 294 kts 237°
2026-04-30 12:04 -37.63477 145.32073 11235 ft 294 kts 237°
2026-04-30 12:04 -37.64663 145.30019 10878 ft 293 kts 237°
2026-04-30 12:04 -37.65878 145.27913 10505 ft 293 kts 237°
2026-04-30 12:05 -37.67065 145.25853 10148 ft 294 kts 237°
2026-04-30 12:05 -37.68259 145.23787 9886 ft 289 kts 237°
2026-04-30 12:05 -37.69438 145.21751 9587 ft 284 kts 237°
2026-04-30 12:05 -37.70600 145.19732 9148 ft 283 kts 237°
2026-04-30 12:06 -37.71746 145.17736 8666 ft 280 kts 238°
2026-04-30 12:06 -37.72885 145.15747 8041 ft 278 kts 238°
2026-04-30 12:06 -37.73579 145.14534 7722 ft 275 kts 238°
2026-04-30 12:06 -37.74660 145.12647 7521 ft 259 kts 238°
2026-04-30 12:07 -37.75451 145.11269 7198 ft 255 kts 238°
2026-04-30 12:07 -37.76486 145.09457 6754 ft 255 kts 238°
2026-04-30 12:07 -37.77507 145.07667 6486 ft 253 kts 239°
2026-04-30 12:07 -37.78539 145.05859 6166 ft 253 kts 239°
2026-04-30 12:08 -37.79573 145.04053 5862 ft 253 kts 239°
2026-04-30 12:08 -37.80608 145.02242 5515 ft 255 kts 240°
2026-04-30 12:08 -37.81423 145.00307 5248 ft 246 kts 256°
2026-04-30 12:08 -37.81841 144.98237 4855 ft 242 kts 264°
2026-04-30 12:09 -37.82198 144.96169 4360 ft 239 kts 264°
2026-04-30 12:09 -37.82550 144.94146 4021 ft 230 kts 264°
2026-04-30 12:09 -37.82830 144.92210 3782 ft 217 kts 267°
2026-04-30 12:09 -37.83060 144.90368 3526 ft 207 kts 268°
2026-04-30 12:10 -37.83182 144.88617 3270 ft 189 kts 288°
2026-04-30 12:10 -37.82635 144.87215 3185 ft 175 kts 320°
2026-04-30 12:10 -37.81631 144.86520 2973 ft 163 kts 351°
2026-04-30 12:10 -37.80532 144.86325 2736 ft 157 kts 353°
2026-04-30 12:11 -37.79467 144.86131 2506 ft 152 kts 353°
2026-04-30 12:11 -37.78446 144.85940 2321 ft 143 kts 354°
2026-04-30 12:11 -37.77479 144.85758 2116 ft 138 kts 354°
2026-04-30 12:11 -37.76538 144.85582 1925 ft 136 kts 354°
2026-04-30 12:12 -37.75611 144.85409 1737 ft 135 kts 353°
2026-04-30 12:12 -37.74686 144.85237 1559 ft 135 kts 354°
2026-04-30 12:12 -37.73752 144.85051 1358 ft 138 kts 354°
2026-04-30 12:12 -37.72830 144.84892 1175 ft 136 kts 353°
2026-04-30 12:13 -37.71903 144.84734 1027 ft 135 kts 353°
2026-04-30 12:13 -37.70967 144.84551 844 ft 136 kts 352°
2026-04-30 12:13 -37.70031 144.84375 664 ft 135 kts 353°
2026-04-30 12:13 -37.69111 144.84188 481 ft 133 kts 352°
2026-04-30 12:14 -37.68197 144.84027 357 ft 128 kts 352°
2026-04-30 12:14 -37.67462 144.83892 368 ft 82 kts 351°
2026-04-30 12:14 -37.67036 144.83827 385 ft 44 kts
2026-04-30 12:14 -37.66884 144.83892 390 ft 12 kts 21°
2026-04-30 12:15 -37.66801 144.83933 392 ft 13 kts 22°
2026-04-30 12:15 -37.66728 144.84006 393 ft 15 kts 64°
2026-04-30 12:15 -37.66716 144.84082 391 ft 1 kts 82°
2026-04-30 12:15 -37.66722 144.84119 389 ft 9 kts 116°
2026-04-30 12:16 -37.66793 144.84192 392 ft 17 kts 162°
2026-04-30 12:16 -37.66927 144.84218 388 ft 21 kts 171°
2026-04-30 12:16 -37.67080 144.84246 384 ft 23 kts 173°
2026-04-30 12:16 -37.67223 144.84274 381 ft 23 kts 172°
2026-04-30 12:17 -37.67479 144.84355 376 ft 13 kts 105°
2026-04-30 12:17 -37.67466 144.84477 378 ft 15 kts 82°
2026-04-30 12:17 -37.67451 144.84605 380 ft 15 kts 79°
2026-04-30 12:18 -37.67437 144.84724 382 ft 11 kts 82°
2026-04-30 12:18 -37.67445 144.84774 382 ft 5 kts 143°
2026-04-30 12:18 -37.67493 144.84784 380 ft 8 kts 172°
2026-04-30 12:18 -37.67520 144.84789 380 ft 0 kts 172°
2026-04-30 12:19 -37.67530 144.84791 379 ft 0 kts 171°